Weather History for KLRO - December, 2012

Change the Weather History Date:

Thursday, December 20, 2012

  Actual Average (KCHS) Record (KCHS)
Temperature  
Mean Temperature 55 °F 50 °F  
Max Temperature 71 °F 60 °F 81 °F (1931)
Min Temperature 39 °F 39 °F 14 °F (1981)
Degree Days  
Heating Degree Days 10 15  
Month to date heating degree days 267  
Since 1 July heating degree days 559  
Cooling Degree Days 0 0  
Month to date cooling degree days 0  
Year to date cooling degree days 2297  
Growing Degree Days 5 (Base 50)    
Moisture  
Dew Point 53 °F    
Average Humidity 86    
Maximum Humidity 100    
Minimum Humidity 53    
Precipitation  
Precipitation 0.82 in 0.11 in 1.16 in (1973)
Month to date precipitation 1.93  
Year to date precipitation 49.85  
Sea Level Pressure  
Sea Level Pressure 29.95 in    
Wind  
Wind Speed 6 mph (South)    
Max Wind Speed 25 mph    
Max Gust Speed 39 mph    
Visibility 8 miles    
Events Rain    
T = Trace of Precipitation, MM = Missing Value Source: NWS Daily Summary

Daily Weather History Graph

Daily Weather History Graph

Search for Another Location

Airport or City:

Trip Planner

Search our weather history database for the weather conditions in past years. The results will help you decide how hot, cold, wet, or windy it might be!

Date:

Astronomy

Dec. 20, 2012 Rise Set
Actual Time 7:17 AM EST 5:16 PM EST
Civil Twilight 6:50 AM EST 5:43 PM EST
Nautical Twilight 6:19 AM EST 6:14 PM EST
Astronomical Twilight 5:49 AM EST 6:44 PM EST
Moon 12:18 PM EST (12/20) 12:19 AM EST (12/20)
Length of Visible Light 10h 53m
Length of Day
9h 58m
First Quarter, 55% of the Moon is Illuminated
Dec 20
First Quarter
Dec 28
Full
Jan 4
Last Quarter
Jan 11
New
Jan 18
First Quarter

Hourly Weather History & Observations

Time (EST) Temp. Windchill Dew Point Humidity Pressure Visibility Wind Dir Wind Speed Gust Speed Precip Events Conditions
12:15 AM 44.6 °F - 44.6 °F 100% 30.13 in 10.0 mi Calm Calm - N/A   Clear
12:35 AM 44.6 °F - 42.8 °F 93% 30.12 in 10.0 mi Calm Calm - N/A   Clear
12:55 AM 42.8 °F - 42.8 °F 100% 30.12 in 9.0 mi Calm Calm - N/A   Clear
1:15 AM 42.8 °F - 42.8 °F 100% 30.13 in 10.0 mi Calm Calm - N/A   Clear
1:35 AM 42.8 °F - 42.8 °F 100% 30.13 in 9.0 mi Calm Calm - N/A   Clear
1:55 AM 42.8 °F - 42.8 °F 100% 30.13 in 8.0 mi Calm Calm - N/A   Clear
2:15 AM 42.8 °F - 42.8 °F 100% 30.13 in 9.0 mi Calm Calm - N/A   Clear
2:35 AM 42.8 °F - 41.0 °F 93% 30.13 in 8.0 mi Calm Calm - N/A   Clear
2:55 AM 42.8 °F - 41.0 °F 93% 30.12 in 8.0 mi Calm Calm - N/A   Clear
3:15 AM 41.0 °F - 41.0 °F 100% 30.12 in 8.0 mi Calm Calm - N/A   Clear
3:35 AM 41.0 °F - 41.0 °F 100% 30.11 in 9.0 mi Calm Calm - N/A   Clear
3:55 AM 41.0 °F - 41.0 °F 100% 30.11 in 9.0 mi Calm Calm - N/A   Clear
4:15 AM 39.2 °F - 39.2 °F 100% 30.11 in 10.0 mi Calm Calm - N/A   Clear
4:35 AM 39.2 °F - 39.2 °F 100% 30.11 in 8.0 mi Calm Calm - N/A   Clear
4:55 AM 39.2 °F - 39.2 °F 100% 30.11 in 9.0 mi Calm Calm - N/A   Clear
5:15 AM 39.2 °F - 39.2 °F 100% 30.11 in 9.0 mi Calm Calm - N/A   Clear
5:35 AM 39.2 °F - 39.2 °F 100% 30.12 in 9.0 mi Calm Calm - N/A   Clear
5:55 AM 39.2 °F - 39.2 °F 100% 30.11 in 8.0 mi Calm Calm - N/A   Clear
6:15 AM 39.2 °F - 39.2 °F 100% 30.11 in 7.0 mi Calm Calm - N/A   Clear
6:35 AM 39.2 °F - 39.2 °F 100% 30.11 in 8.0 mi Calm Calm - N/A   Clear
6:55 AM 39.2 °F - 39.2 °F 100% 30.12 in 10.0 mi Calm Calm - N/A   Clear
7:15 AM 39.2 °F - 39.2 °F 100% 30.12 in 7.0 mi Calm Calm - N/A   Clear
7:35 AM 39.2 °F - 39.2 °F 100% 30.11 in 7.0 mi Calm Calm - N/A   Clear
7:55 AM 39.2 °F - 39.2 °F 100% 30.11 in 8.0 mi Calm Calm - N/A   Clear
8:15 AM 41.0 °F - 41.0 °F 100% 30.10 in 8.0 mi Calm Calm - N/A   Clear
8:35 AM 42.8 °F - 42.8 °F 100% 30.10 in 10.0 mi Calm Calm - N/A   Clear
8:55 AM 44.6 °F 43.1 °F 44.6 °F 100% 30.09 in 10.0 mi ESE 3.5 mph - N/A   Clear
9:15 AM 48.2 °F - 48.2 °F 100% 30.08 in 10.0 mi ESE 3.5 mph - N/A   Clear
9:35 AM 51.8 °F - 50.0 °F 94% 30.08 in 9.0 mi SE 4.6 mph - N/A   Clear
9:55 AM 57.2 °F - 53.6 °F 88% 30.08 in 10.0 mi SE 5.8 mph - N/A   Clear
10:15 AM 64.4 °F - 55.4 °F 73% 30.05 in 10.0 mi SE 5.8 mph - N/A   Clear
10:35 AM 66.2 °F - 55.4 °F 68% 30.06 in 10.0 mi SSE 5.8 mph - N/A   Clear
10:55 AM 68.0 °F - 55.4 °F 64% 30.06 in 10.0 mi SSE 9.2 mph - N/A   Clear
11:15 AM 69.8 °F - 55.4 °F 60% 30.05 in 10.0 mi SSE 6.9 mph - N/A   Clear
11:35 AM 69.8 °F - 53.6 °F 56% 30.03 in 10.0 mi South 9.2 mph - N/A   Scattered Clouds
11:55 AM 71.6 °F - 53.6 °F 53% 30.01 in 10.0 mi South 9.2 mph - N/A   Scattered Clouds
12:15 PM 71.6 °F - 57.2 °F 60% 29.99 in 10.0 mi South 12.7 mph 16.1 mph N/A   Scattered Clouds
12:35 PM 71.6 °F - 57.2 °F 60% 29.98 in 10.0 mi South 17.3 mph 21.9 mph N/A   Mostly Cloudy
12:55 PM 71.6 °F - 59.0 °F 64% 29.96 in 10.0 mi South 15.0 mph 24.2 mph N/A   Mostly Cloudy
1:15 PM 71.6 °F - 60.8 °F 69% 29.95 in 10.0 mi South 13.8 mph 23.0 mph N/A   Mostly Cloudy
1:35 PM 69.8 °F - 60.8 °F 73% 29.93 in 10.0 mi South 10.4 mph 20.7 mph N/A   Mostly Cloudy
1:55 PM 71.6 °F - 59.0 °F 64% 29.91 in 10.0 mi South 16.1 mph 23.0 mph N/A   Partly Cloudy
2:15 PM 71.6 °F - 59.0 °F 64% 29.90 in 10.0 mi South 17.3 mph 21.9 mph N/A   Partly Cloudy
2:35 PM 71.6 °F - 60.8 °F 69% 29.90 in 10.0 mi South 11.5 mph 20.7 mph N/A   Scattered Clouds
2:55 PM 71.6 °F - 60.8 °F 69% 29.89 in 10.0 mi South 15.0 mph 19.6 mph N/A   Scattered Clouds
3:15 PM 71.6 °F - 59.0 °F 64% 29.88 in 10.0 mi South 13.8 mph 23.0 mph N/A   Scattered Clouds
3:35 PM 71.6 °F - 59.0 °F 64% 29.87 in 10.0 mi South 18.4 mph 25.3 mph N/A   Clear
3:55 PM 69.8 °F - 60.8 °F 73% 29.86 in 10.0 mi South 12.7 mph 20.7 mph N/A   Partly Cloudy
4:15 PM 69.8 °F - 60.8 °F 73% 29.85 in 10.0 mi South 12.7 mph 19.6 mph N/A   Mostly Cloudy
4:35 PM 69.8 °F - 60.8 °F 73% 29.84 in 9.0 mi South 12.7 mph - N/A   Scattered Clouds
4:55 PM 68.0 °F - 60.8 °F 78% 29.84 in 9.0 mi South 11.5 mph 19.6 mph N/A   Partly Cloudy
5:15 PM 68.0 °F - 60.8 °F 78% 29.83 in 8.0 mi South 11.5 mph 19.6 mph N/A   Clear
5:35 PM 68.0 °F - 60.8 °F 78% 29.82 in 10.0 mi South 13.8 mph 20.7 mph N/A   Clear
5:55 PM 68.0 °F - 60.8 °F 78% 29.82 in 9.0 mi South 15.0 mph 21.9 mph N/A   Partly Cloudy
6:15 PM 68.0 °F - 62.6 °F 83% 29.80 in 9.0 mi South 13.8 mph 24.2 mph N/A   Partly Cloudy
6:35 PM 68.0 °F - 62.6 °F 83% 29.78 in 10.0 mi South 18.4 mph 26.5 mph N/A   Partly Cloudy
6:55 PM 68.0 °F - 62.6 °F 83% 29.79 in 9.0 mi South 21.9 mph 26.5 mph N/A   Scattered Clouds
7:15 PM 69.8 °F - 62.6 °F 78% 29.77 in 8.0 mi South 18.4 mph 28.8 mph N/A   Mostly Cloudy
7:35 PM 68.0 °F - 62.6 °F 83% 29.76 in 5.0 mi South 18.4 mph 27.6 mph N/A Rain Light Rain
7:55 PM 66.2 °F - 62.6 °F 88% 29.75 in 3.0 mi South 19.6 mph 27.6 mph 0.02 in Rain Rain
8:15 PM 66.2 °F - 64.4 °F 94% 29.75 in 2.0 mi South 19.6 mph 32.2 mph 0.06 in Rain Heavy Rain
8:35 PM 66.2 °F - 64.4 °F 94% 29.71 in 6.0 mi South 23.0 mph 33.4 mph 0.14 in   Mostly Cloudy
8:55 PM 66.2 °F - 64.4 °F 94% 29.70 in 5.0 mi South 21.9 mph 32.2 mph 0.14 in   Light Drizzle
9:15 PM 68.0 °F - 64.4 °F 88% 29.70 in 5.0 mi South 16.1 mph 27.6 mph N/A   Overcast
9:35 PM 68.0 °F - 64.4 °F 88% 29.69 in 2.5 mi South 25.3 mph 34.5 mph 0.02 in   Drizzle
9:55 PM 66.2 °F - 64.4 °F 94% 29.68 in 4.0 mi South 25.3 mph 38.0 mph 0.03 in   Light Drizzle
10:15 PM 66.2 °F - 64.4 °F 94% 29.67 in 4.0 mi South 25.3 mph 35.7 mph N/A   Drizzle
10:35 PM 66.2 °F - 64.4 °F 94% 29.67 in 0.8 mi South 20.7 mph 39.1 mph 0.23 in Rain Heavy Rain
10:55 PM 64.4 °F - 62.6 °F 94% 29.69 in 1.5 mi WSW 11.5 mph 23.0 mph 0.63 in   Overcast
11:15 PM 64.4 °F - 60.8 °F 88% 29.69 in 9.0 mi West 11.5 mph 18.4 mph N/A   Mostly Cloudy
11:35 PM 62.6 °F - 60.8 °F 94% 29.70 in 10.0 mi West 15.0 mph 24.2 mph N/A   Mostly Cloudy
11:55 PM 59.0 °F - 48.2 °F 67% 29.73 in 10.0 mi WNW 23.0 mph 33.4 mph N/A   Mostly Cloudy